Commit Graph
31 Commits
Author SHA1 Message Date
Philip Kristoffersen e63a29bfa6 Reenable compression on linux binaries 2022-12-31 08:30:05 +01:00
Philip Kristoffersen ff22409b62 Do not compress on linux 2022-12-29 13:33:29 +01:00
Philip Kristoffersen b58fd8ade3 Remove musl target 2022-12-27 15:41:12 +01:00
Philip Kristoffersen fcb12241b7 Add musl build target 2022-12-26 16:05:13 +01:00
Philip KristoffersenandGitHub e76c84b130 Update dependencies (#282) 2022-12-26 14:58:31 +01:00
Philip KristoffersenandGitHub 3623beb394 Update main workfow 2022-10-12 22:08:49 +02:00
Philip KristoffersenandGitHub 5c5f05cd1f Update release workflow 2022-10-12 22:08:00 +02:00
Philip KristoffersenandGitHub 993bf04a83 Enable a flatpak feature (#218) 2022-08-31 21:25:35 +02:00
Philip Kristoffersen 07d2551c63 Update rust-cache to version 2 2022-08-15 15:24:15 +02:00
Philip KristoffersenandGitHub 68cca4490f Update issue templates 2022-08-12 18:38:28 +02:00
Philip KristoffersenandGitHub aa05de9865 Make UI default, and remove CLI version (#83) 2022-04-15 13:54:01 +02:00
Philip KristoffersenandGitHub a0c6fe0c8f New UI (#74) 2022-04-09 21:49:11 +02:00
Philip KristoffersenandGitHub b47d8be75e Add macos unit tests job to CI (#28) 2022-03-10 20:39:00 +01:00
Philip KristoffersenandGitHub 60e5641bf8 Add macos to build to releases (#25) 2022-03-10 19:58:30 +01:00
Philip Kristoffersen acc7436ede Correct indentation 2021-11-04 19:29:25 +01:00
Philip Kristoffersen 34419926c7 Use latest rust stable on windows 2021-11-04 19:27:43 +01:00
Philip Kristoffersen fcfb0d7c07 Strip binaries for linux ui 2021-10-07 15:41:17 +02:00
Philip 6c042a0fef Compress windows UI version 2021-10-02 15:46:32 +02:00
Philip Kristoffersen 6e9ea68b3e Do not compress UI build (it breaks them) 2021-10-02 14:25:36 +02:00
Philip Kristoffersen 50c1ee13d7 Make ui version and cli version 2021-10-02 14:06:47 +02:00
Philip Kristoffersen f7205f2eed Rename project to BoilR 2021-10-02 10:12:08 +02:00
Philip Kristoffersen cb093e1464 Rename project to BoilR 2021-10-02 10:10:11 +02:00
Philip e059ecc25b sudo apt-get update on releases 2021-09-29 22:26:45 +02:00
Philip KristoffersenandGitHub 1f66856e46 Update apt-get when testing on linux 2021-09-29 11:18:42 +02:00
Philip Kristoffersen 8434f7841f Add sudo for dependencies install 2021-09-27 22:31:43 +02:00
Philip Kristoffersen dc90642e13 Install dependencies on linux for fltk 2021-09-27 21:24:18 +02:00
Philip KristoffersenandGitHub f46bc063c3 Correct release artifact names 2021-09-26 08:29:34 +02:00
Philip KristoffersenandGitHub cfc21e7226 Update release_on_v_tag 2021-09-26 08:07:48 +02:00
Philip 195555b244 Setup release on tags 2021-09-26 07:36:31 +02:00
Philip Kristoffersen 104e173102 Add trigger release github workflow 2021-09-19 14:35:08 +02:00
Philip Kristoffersen 2cee17f200 Add "Test on Push" github workflow 2021-09-19 14:25:24 +02:00